LaGuardia Airport

Airport
ICAO code: 
KLGA
Summary
ICAO Region: 
NAM
Territory: 
Location: 
East Elmhurst, Queens, New York,
Coordinates: 
Aerial View: 
40° 46' 37.916" N, 73° 52' 21.349" W
Airport BS: 
Bird Strike
Airport RE: 
Engineered Materials Arresting System
Metar
Observation
KLGA 190051Z 32012KT 10SM CLR 01/M10 A3014 RMK AO2 SLP204 T00061100
Station
New York, La Guardia Airport
Date/Time
2022-01-19 00:51:00
Wind direction
320°
Wind speed
12 kts
Lowest cloud amount
n/a
Temperature
0.6°C
Dew point
-10°C
Humidity
44%
Weather condition
n/a

Description

Airport serving the city of New York, NY, USA.

Climatology

Humid “subtropical” climate (Köppen climate classification Cfa) - characterized by hot, humid summers and cool winters. Significant amounts of precipitation occur in all seasons in most areas. Winter rainfall (and sometimes snowfall) is associated with large storms that the westerlies steer from west to east. Most summer rainfall occurs during thunderstorms.

Runways

Designator Length Width Surface Rops
4/22 2134 46 ASP Yes/Yes
13/31 2134 46 ASP Yes/Yes

SKYbrary Partners:

Safety knowledge contributed by: